This is the latest recevied weather packets stored in our database for station/object K4IR. If no packets are shown the sender has not sent any weather packets the latest 10 day(s).
| Time | Temp. | Humidity | Pressure | Rain* | Wind** | Luminosity | Snow |
|---|---|---|---|---|---|---|---|
| 1788547600 | 32.78° C | 69% | 1015.9 hPa | 0 mm | - | 659 W/m² | - |
| 1788546997 | 32.78° C | 67% | 1016 hPa | 0 mm | - | 676 W/m² | - |
| 1788546392 | 32.78° C | 65% | 1015.9 hPa | 0 mm | - | 692 W/m² | - |
| 1788545789 | 32.78° C | 65% | 1016 hPa | 0 mm | - | 705 W/m² | - |
| 1788545185 | 32.22° C | 70% | 1016.2 hPa | 0 mm | - | 718 W/m² | - |
| 1788544585 | 32.78° C | 68% | 1016.3 hPa | 0 mm | - | 730 W/m² | - |
| 1788543984 | 32.78° C | 71% | 1016.3 hPa | 0 mm | - | 737 W/m² | - |
| 1788543381 | 32.78° C | 65% | 1016.5 hPa | 0 mm | - | 743 W/m² | - |
| 1788542779 | 33.33° C | 63% | 1016.5 hPa | 0 mm | - | 749 W/m² | - |
| 1788542179 | 32.78° C | 62% | 1016.5 hPa | 0 mm | - | 754 W/m² | - |
| 1788541576 | 32.78° C | 65% | 1016.5 hPa | 0 mm | - | 756 W/m² | - |
| 1788540970 | 32.78° C | 64% | 1016.9 hPa | 0 mm | - | 754 W/m² | - |
| 1788540370 | 32.78° C | 61% | 1016.9 hPa | 0 mm | - | 755 W/m² | - |
| 1788539778 | 32.78° C | 66% | 1017.2 hPa | 0 mm | - | 748 W/m² | - |
| 1788539162 | 32.22° C | 68% | 1017.2 hPa | 0 mm | - | 751 W/m² | - |
| 1788538558 | 32.22° C | 65% | 1017.1 hPa | 0 mm | - | 741 W/m² | - |
| 1788537954 | 32.22° C | 67% | 1017.3 hPa | 0 mm | - | 749 W/m² | - |
| 1788537349 | 32.22° C | 70% | 1017.2 hPa | 0 mm | - | 723 W/m² | - |
| 1788536749 | 31.67° C | 69% | 1017.7 hPa | 0 mm | - | 139 W/m² | - |
| 1788536149 | 31.67° C | 70% | 1017.7 hPa | 0 mm | - | 186 W/m² | - |
| 1788535548 | 31.11° C | 70% | 1017.4 hPa | 0 mm | - | 58 W/m² | - |
| 1788534944 | 31.11° C | 72% | 1017.5 hPa | 0 mm | - | 52 W/m² | - |
| 1788534343 | 31.11° C | 74% | 1017.8 hPa | 0 mm | - | 84 W/m² | - |
| 1788533752 | 30.56° C | 73% | 1017.7 hPa | 0 mm | - | 56 W/m² | - |
| 1788533141 | 31.11° C | 73% | 1017.3 hPa | 0 mm | - | 56 W/m² | - |
* Rain latest hour (hover to see other rain measurements)
** Current wind speed in m/s (hover to see current wind gust speed)